TimeGMT,TemperatureF,Dew PointF,Humidity,Sea Level PressureIn,VisibilityMPH,Wind Direction,Wind SpeedMPH,Gust SpeedMPH,PrecipitationIn,Events,Conditions,WindDirDegrees,DateUTC
12:50 AM,42.8,39.2,87,30.04,6.2,SW,9.2,-,N/A,,Unknown,230,2012-11-12 00:50:00
1:50 AM,41.0,39.2,93,30.04,5.6,SSW,6.9,-,N/A,,Mostly Cloudy,210,2012-11-12 01:50:00
2:50 AM,40,38,92,30.04,6,SSE,3.5,,,,Mist,160,2012-11-12 02:50:00
2:50 AM,39.2,39.2,100,30.04,5.6,SSE,3.5,-,N/A,,Overcast,160,2012-11-12 02:50:00
4:50 AM,41.0,39.2,93,30.04,6.2,South,4.6,-,N/A,,Overcast,180,2012-11-12 04:50:00
5:50 AM,41.0,39.2,93,30.01,6.2,South,4.6,-,N/A,,Overcast,170,2012-11-12 05:50:00
6:50 AM,41.0,39.2,93,30.04,6.2,South,6.9,-,N/A,,Overcast,180,2012-11-12 06:50:00
7:50 AM,41.0,39.2,93,30.04,6.2,South,8.1,-,N/A,,Mostly Cloudy,170,2012-11-12 07:50:00
8:50 AM,44,40,83,30.03,12,South,9.2,,,,Mostly Cloudy,180,2012-11-12 08:50:00
8:50 AM,44.6,41.0,87,30.01,6.2,South,9.2,-,N/A,,Mostly Cloudy,180,2012-11-12 08:50:00
9:50 AM,44.6,41.0,87,30.01,6.2,South,9.2,-,N/A,,Mostly Cloudy,170,2012-11-12 09:50:00
10:50 AM,46.4,42.8,87,30.01,6.2,South,12.7,-,N/A,Rain,Light Rain,190,2012-11-12 10:50:00
11:50 AM,47,44,87,30.00,3,South,11.5,,,Rain,Rain,180,2012-11-12 11:50:00
11:50 AM,46.4,44.6,93,29.98,3.1,South,11.5,-,N/A,Rain,Rain,180,2012-11-12 11:50:00
12:50 PM,46.4,44.6,93,29.98,5.0,South,10.4,-,N/A,Rain,Rain,190,2012-11-12 12:50:00
1:50 PM,48.2,46.4,93,29.98,6.2,South,13.8,-,N/A,,Mostly Cloudy,190,2012-11-12 13:50:00
2:50 PM,48,46,89,29.98,25,South,9.2,,,,Partly Cloudy,190,2012-11-12 14:50:00
2:50 PM,48.2,46.4,93,29.98,6.2,South,9.2,-,N/A,,Overcast,190,2012-11-12 14:50:00
3:50 PM,48.2,46.4,93,29.98,6.2,South,9.2,-,N/A,,Mostly Cloudy,170,2012-11-12 15:50:00
4:50 PM,48.2,46.4,93,29.98,6.2,South,9.2,-,N/A,,Mostly Cloudy,180,2012-11-12 16:50:00
5:50 PM,45,44,97,30.01,7,ESE,4.6,,,,Scattered Clouds,120,2012-11-12 17:50:00
5:50 PM,44.6,44.6,100,30.01,6.2,ESE,4.6,-,N/A,,Partly Cloudy,120,2012-11-12 17:50:00
6:50 PM,44.6,44.6,100,30.01,5.6,SE,5.8,-,N/A,,Mostly Cloudy,140,2012-11-12 18:50:00
7:50 PM,48.2,46.4,93,30.01,4.3,South,6.9,-,N/A,,Mostly Cloudy,170,2012-11-12 19:50:00
8:50 PM,48,47,95,30.04,4,South,8.1,,,,Mist,190,2012-11-12 20:50:00
8:50 PM,48.2,46.4,93,30.04,3.7,South,8.1,-,N/A,,Mostly Cloudy,190,2012-11-12 20:50:00
9:50 PM,50.0,48.2,94,30.04,6.2,SSW,6.9,-,N/A,,Overcast,200,2012-11-12 21:50:00
10:50 PM,48.2,46.4,93,30.06,5.6,SSW,8.1,-,N/A,,Scattered Clouds,210,2012-11-12 22:50:00
11:50 PM,48,47,93,30.08,4,South,3.5,,,,Mist,170,2012-11-12 23:50:00
11:50 PM,48.2,46.4,93,30.06,4.3,South,3.5,-,N/A,,Mostly Cloudy,170,2012-11-12 23:50:00